Year,Month,Day,Hour,Minute,Value (Times are PST for temperature in C)
2011,08,20,00,00,12.30
2011,08,20,00,01,12.30
2011,08,20,00,02,12.30
2011,08,20,00,03,12.30
2011,08,20,00,04,12.30
2011,08,20,00,05,12.30
2011,08,20,00,06,12.30
2011,08,20,00,07,12.30
2011,08,20,00,08,12.30
2011,08,20,00,09,12.30
2011,08,20,00,10,12.30
2011,08,20,00,11,12.30
2011,08,20,00,12,12.30
2011,08,20,00,13,12.30
2011,08,20,00,14,12.20
2011,08,20,00,15,12.20
2011,08,20,00,16,12.20
2011,08,20,00,17,12.20
2011,08,20,00,18,12.10
2011,08,20,00,19,12.10
2011,08,20,00,20,12.10
2011,08,20,00,21,12.10
2011,08,20,00,22,12.10
2011,08,20,00,23,12.10
2011,08,20,00,24,12.10
2011,08,20,00,25,12.10
2011,08,20,00,26,12.10
2011,08,20,00,27,12.10
2011,08,20,00,28,12.10
2011,08,20,00,29,12.10
2011,08,20,00,30,12.10
2011,08,20,00,31,12.10
2011,08,20,00,32,12.10
2011,08,20,00,33,12.10
2011,08,20,00,34,12.10
2011,08,20,00,35,12.10
2011,08,20,00,36,12.10
2011,08,20,00,37,12.10
2011,08,20,00,38,12.10
2011,08,20,00,39,12.10
2011,08,20,00,40,12.10
2011,08,20,00,41,12.10
2011,08,20,00,42,12.10
2011,08,20,00,43,12.00
2011,08,20,00,44,12.00
2011,08,20,00,45,12.00
2011,08,20,00,46,12.00
2011,08,20,00,47,11.90
2011,08,20,00,48,11.90
2011,08,20,00,49,11.90
2011,08,20,00,50,11.90
2011,08,20,00,51,11.90
2011,08,20,00,52,11.80
2011,08,20,00,53,11.80
2011,08,20,00,54,11.80
2011,08,20,00,55,11.80
2011,08,20,00,56,11.80
2011,08,20,00,57,11.80
2011,08,20,00,58,11.80
2011,08,20,00,59,11.80
2011,08,20,01,00,11.90
2011,08,20,01,01,11.90
2011,08,20,01,02,11.90
2011,08,20,01,03,11.80
2011,08,20,01,04,11.80
2011,08,20,01,05,11.80
2011,08,20,01,06,11.80
2011,08,20,01,07,11.80
2011,08,20,01,08,11.80
2011,08,20,01,09,11.80
2011,08,20,01,10,11.80
2011,08,20,01,11,11.80
2011,08,20,01,12,11.80
2011,08,20,01,13,11.80
2011,08,20,01,14,11.80
2011,08,20,01,15,11.80
2011,08,20,01,16,11.80
2011,08,20,01,17,11.80
2011,08,20,01,18,11.80
2011,08,20,01,19,11.70
2011,08,20,01,20,11.70
2011,08,20,01,21,11.70
2011,08,20,01,22,11.70
2011,08,20,01,23,11.70
2011,08,20,01,24,11.70
2011,08,20,01,25,11.70
2011,08,20,01,26,11.70
2011,08,20,01,27,11.70
2011,08,20,01,28,11.70
2011,08,20,01,29,11.70
2011,08,20,01,30,11.70
2011,08,20,01,31,11.70
2011,08,20,01,32,11.70
2011,08,20,01,33,11.70
2011,08,20,01,34,11.70
2011,08,20,01,35,11.70
2011,08,20,01,36,11.70
2011,08,20,01,37,11.70
2011,08,20,01,38,11.60
2011,08,20,01,39,11.60
2011,08,20,01,40,11.60
2011,08,20,01,41,11.60
2011,08,20,01,42,11.50
2011,08,20,01,43,11.50
2011,08,20,01,44,11.50
2011,08,20,01,45,11.50
2011,08,20,01,46,11.50
2011,08,20,01,47,11.50
2011,08,20,01,48,11.50
2011,08,20,01,49,11.50
2011,08,20,01,50,11.50
2011,08,20,01,51,11.40
2011,08,20,01,52,11.40
2011,08,20,01,53,11.40
2011,08,20,01,54,11.40
2011,08,20,01,55,11.40
2011,08,20,01,56,11.40
2011,08,20,01,57,11.40
2011,08,20,01,58,11.40
2011,08,20,01,59,11.40
2011,08,20,02,00,11.40
2011,08,20,02,01,11.40
2011,08,20,02,02,11.40
2011,08,20,02,03,11.40
2011,08,20,02,04,11.40
2011,08,20,02,05,11.40
2011,08,20,02,06,11.40
2011,08,20,02,07,11.40
2011,08,20,02,08,11.30
2011,08,20,02,09,11.30
2011,08,20,02,10,11.30
2011,08,20,02,11,11.30
2011,08,20,02,12,11.40
2011,08,20,02,13,11.40
2011,08,20,02,14,11.40
2011,08,20,02,15,11.40
2011,08,20,02,16,11.40
2011,08,20,02,17,11.40
2011,08,20,02,18,11.30
2011,08,20,02,19,11.30
2011,08,20,02,20,11.30
2011,08,20,02,21,11.30
2011,08,20,02,22,11.30
2011,08,20,02,23,11.30
2011,08,20,02,24,11.20
2011,08,20,02,25,11.20
2011,08,20,02,26,11.20
2011,08,20,02,27,11.20
2011,08,20,02,28,11.20
2011,08,20,02,29,11.20
2011,08,20,02,30,11.20
2011,08,20,02,31,11.20
2011,08,20,02,32,11.20
2011,08,20,02,33,11.20
2011,08,20,02,34,11.20
2011,08,20,02,35,11.30
2011,08,20,02,36,11.30
2011,08,20,02,37,11.30
2011,08,20,02,38,11.30
2011,08,20,02,39,11.30
2011,08,20,02,40,11.30
2011,08,20,02,41,11.30
2011,08,20,02,42,11.30
2011,08,20,02,43,11.30
2011,08,20,02,44,11.30
2011,08,20,02,45,11.30
2011,08,20,02,46,11.30
2011,08,20,02,47,11.30
2011,08,20,02,48,11.30
2011,08,20,02,49,11.30
2011,08,20,02,50,11.30
2011,08,20,02,51,11.30
2011,08,20,02,52,11.30
2011,08,20,02,53,11.30
2011,08,20,02,54,11.30
2011,08,20,02,55,11.30
2011,08,20,02,56,11.30
2011,08,20,02,57,11.30
2011,08,20,02,58,11.30
2011,08,20,02,59,11.40
2011,08,20,03,00,11.40
2011,08,20,03,01,11.40
2011,08,20,03,02,11.40
2011,08,20,03,03,11.40
2011,08,20,03,04,11.40
2011,08,20,03,05,11.50
2011,08,20,03,06,11.50
2011,08,20,03,07,11.50
2011,08,20,03,08,11.50
2011,08,20,03,09,11.50
2011,08,20,03,10,11.50
2011,08,20,03,11,11.50
2011,08,20,03,12,11.60
2011,08,20,03,13,11.60
2011,08,20,03,14,11.60
2011,08,20,03,15,11.60
2011,08,20,03,16,11.60
2011,08,20,03,17,11.60
2011,08,20,03,18,11.60
2011,08,20,03,19,11.60
2011,08,20,03,20,11.60
2011,08,20,03,21,11.60
2011,08,20,03,22,11.60
2011,08,20,03,23,11.60
2011,08,20,03,24,11.60
2011,08,20,03,25,11.60
2011,08,20,03,26,11.60
2011,08,20,03,27,11.60
2011,08,20,03,28,11.60
2011,08,20,03,29,11.60
2011,08,20,03,30,11.60
2011,08,20,03,31,11.50
2011,08,20,03,32,11.50
2011,08,20,03,33,11.50
2011,08,20,03,34,11.60
2011,08,20,03,35,11.60
2011,08,20,03,36,11.60
2011,08,20,03,37,11.60
2011,08,20,03,38,11.60
2011,08,20,03,39,11.60
2011,08,20,03,40,11.60
2011,08,20,03,41,11.60
2011,08,20,03,42,11.60
2011,08,20,03,43,11.60
2011,08,20,03,44,11.60
2011,08,20,03,45,11.60
2011,08,20,03,46,11.60
2011,08,20,03,47,11.60
2011,08,20,03,48,11.60
2011,08,20,03,49,11.60
2011,08,20,03,50,11.60
2011,08,20,03,51,11.60
2011,08,20,03,52,11.60
2011,08,20,03,53,11.60
2011,08,20,03,54,11.60
2011,08,20,03,55,11.70
2011,08,20,03,56,11.70
2011,08,20,03,57,11.70
2011,08,20,03,58,11.70
2011,08,20,03,59,11.70
2011,08,20,04,00,11.70
2011,08,20,04,01,11.70
2011,08,20,04,02,11.70
2011,08,20,04,03,11.80
2011,08,20,04,04,11.80
2011,08,20,04,05,11.80
2011,08,20,04,06,11.80
2011,08,20,04,07,11.80
2011,08,20,04,08,11.80
2011,08,20,04,09,11.80
2011,08,20,04,10,11.80
2011,08,20,04,11,11.80
2011,08,20,04,12,11.80
2011,08,20,04,13,11.80
2011,08,20,04,14,11.80
2011,08,20,04,15,11.80
2011,08,20,04,16,11.80
2011,08,20,04,17,11.80
2011,08,20,04,18,11.90
2011,08,20,04,19,11.90
2011,08,20,04,20,11.90
2011,08,20,04,21,12.00
2011,08,20,04,22,12.00
2011,08,20,04,23,12.00
2011,08,20,04,24,12.10
2011,08,20,04,25,12.10
2011,08,20,04,26,12.10
2011,08,20,04,27,12.10
2011,08,20,04,28,12.20
2011,08,20,04,29,12.20
2011,08,20,04,30,12.30
2011,08,20,04,31,12.30
2011,08,20,04,32,12.30
2011,08,20,04,33,12.40
2011,08,20,04,34,12.40
2011,08,20,04,35,12.40
2011,08,20,04,36,12.50
2011,08,20,04,37,12.60
2011,08,20,04,38,12.60
2011,08,20,04,39,12.70
2011,08,20,04,40,12.70
2011,08,20,04,41,12.80
2011,08,20,04,42,12.80
2011,08,20,04,43,12.80
2011,08,20,04,44,12.80
2011,08,20,04,45,12.80
2011,08,20,04,46,12.80
2011,08,20,04,47,12.80
2011,08,20,04,48,12.80
2011,08,20,04,49,12.90
2011,08,20,04,50,12.90
2011,08,20,04,51,12.90
2011,08,20,04,52,12.90
2011,08,20,04,53,12.80
2011,08,20,04,54,12.80
2011,08,20,04,55,12.80
2011,08,20,04,56,12.80
2011,08,20,04,57,12.80
2011,08,20,04,58,12.80
2011,08,20,04,59,12.80
2011,08,20,05,00,12.70
2011,08,20,05,01,12.70
2011,08,20,05,02,12.70
2011,08,20,05,03,12.70
2011,08,20,05,04,12.70
2011,08,20,05,05,12.60
2011,08,20,05,06,12.60
2011,08,20,05,07,12.60
2011,08,20,05,08,12.60
2011,08,20,05,09,12.50
2011,08,20,05,10,12.50
2011,08,20,05,11,12.50
2011,08,20,05,12,12.50
2011,08,20,05,13,12.50
2011,08,20,05,14,12.50
2011,08,20,05,15,12.60
2011,08,20,05,16,12.60
2011,08,20,05,17,12.60
2011,08,20,05,18,12.60
2011,08,20,05,19,12.60
2011,08,20,05,20,12.60
2011,08,20,05,21,12.60
2011,08,20,05,22,12.60
2011,08,20,05,23,12.60
2011,08,20,05,24,12.70
2011,08,20,05,25,12.70
2011,08,20,05,26,12.70
2011,08,20,05,27,12.70
2011,08,20,05,28,12.70
2011,08,20,05,29,12.80
2011,08,20,05,30,12.80
2011,08,20,05,31,12.80
2011,08,20,05,32,12.80
2011,08,20,05,33,12.90
2011,08,20,05,34,13.10
2011,08,20,05,35,13.20
2011,08,20,05,36,13.30
2011,08,20,05,37,13.40
2011,08,20,05,38,13.60
2011,08,20,05,39,13.80
2011,08,20,05,40,13.90
2011,08,20,05,41,13.90
2011,08,20,05,42,14.00
2011,08,20,05,43,14.00
2011,08,20,05,44,14.00
2011,08,20,05,45,14.00
2011,08,20,05,46,14.00
2011,08,20,05,47,14.00
2011,08,20,05,48,13.90
2011,08,20,05,49,13.90
2011,08,20,05,50,13.90
2011,08,20,05,51,13.80
2011,08,20,05,52,13.80
2011,08,20,05,53,13.70
2011,08,20,05,54,13.70
2011,08,20,05,55,13.70
2011,08,20,05,56,13.80
2011,08,20,05,57,13.80
2011,08,20,05,58,13.80
2011,08,20,05,59,13.90
2011,08,20,06,00,13.90
2011,08,20,06,01,13.90
2011,08,20,06,02,14.00
2011,08,20,06,03,14.00
2011,08,20,06,04,14.00
2011,08,20,06,05,14.10
2011,08,20,06,06,14.10
2011,08,20,06,07,14.10
2011,08,20,06,08,14.10
2011,08,20,06,09,14.20
2011,08,20,06,10,14.20
2011,08,20,06,11,14.20
2011,08,20,06,12,14.20
2011,08,20,06,13,14.20
2011,08,20,06,14,14.20
2011,08,20,06,15,14.10
2011,08,20,06,16,14.10
2011,08,20,06,17,14.10
2011,08,20,06,18,14.10
2011,08,20,06,19,14.10
2011,08,20,06,20,14.10
2011,08,20,06,21,14.00
2011,08,20,06,22,14.00
2011,08,20,06,23,13.90
2011,08,20,06,24,13.90
2011,08,20,06,25,13.90
2011,08,20,06,26,13.90
2011,08,20,06,27,13.90
2011,08,20,06,28,13.90
2011,08,20,06,29,13.90
2011,08,20,06,30,13.80
2011,08,20,06,31,13.80
2011,08,20,06,32,13.80
2011,08,20,06,33,13.80
2011,08,20,06,34,13.80
2011,08,20,06,35,13.80
2011,08,20,06,36,13.80
2011,08,20,06,37,13.80
2011,08,20,06,38,13.80
2011,08,20,06,39,13.80
2011,08,20,06,40,13.80
2011,08,20,06,41,13.80
2011,08,20,06,42,13.80
2011,08,20,06,43,13.80
2011,08,20,06,44,13.80
2011,08,20,06,45,13.80
2011,08,20,06,46,13.80
2011,08,20,06,47,13.80
2011,08,20,06,48,13.80
2011,08,20,06,49,13.80
2011,08,20,06,50,13.80
2011,08,20,06,51,13.80
2011,08,20,06,52,13.70
2011,08,20,06,53,13.70
2011,08,20,06,54,13.70
2011,08,20,06,55,13.70
2011,08,20,06,56,13.70
2011,08,20,06,57,13.70
2011,08,20,06,58,13.70
2011,08,20,06,59,13.70
2011,08,20,07,00,13.70
2011,08,20,07,01,13.70
2011,08,20,07,02,13.80
2011,08,20,07,03,13.80
2011,08,20,07,04,13.80
2011,08,20,07,05,13.80
2011,08,20,07,06,13.80
2011,08,20,07,07,13.80
2011,08,20,07,08,13.80
2011,08,20,07,09,13.80
2011,08,20,07,10,13.90
2011,08,20,07,11,13.90
2011,08,20,07,12,13.90
2011,08,20,07,13,13.90
2011,08,20,07,14,14.00
2011,08,20,07,15,14.10
2011,08,20,07,16,14.10
2011,08,20,07,17,14.20
2011,08,20,07,18,14.40
2011,08,20,07,19,14.60
2011,08,20,07,20,14.70
2011,08,20,07,21,14.80
2011,08,20,07,22,14.90
2011,08,20,07,23,15.00
2011,08,20,07,24,15.00
2011,08,20,07,25,15.00
2011,08,20,07,26,15.10
2011,08,20,07,27,15.20
2011,08,20,07,28,15.30
2011,08,20,07,29,15.40
2011,08,20,07,30,15.40
2011,08,20,07,31,15.40
2011,08,20,07,32,15.50
2011,08,20,07,33,15.60
2011,08,20,07,34,15.60
2011,08,20,07,35,15.70
2011,08,20,07,36,15.70
2011,08,20,07,37,15.90
2011,08,20,07,38,16.00
2011,08,20,07,39,16.10
2011,08,20,07,40,16.20
2011,08,20,07,41,16.30
2011,08,20,07,42,16.40
2011,08,20,07,43,16.40
2011,08,20,07,44,16.50
2011,08,20,07,45,16.60
2011,08,20,07,46,16.60
2011,08,20,07,47,16.60
2011,08,20,07,48,16.70
2011,08,20,07,49,16.90
2011,08,20,07,50,17.00
2011,08,20,07,51,17.10
2011,08,20,07,52,17.20
2011,08,20,07,53,17.50
2011,08,20,07,54,17.70
2011,08,20,07,55,17.90
2011,08,20,07,56,18.00
2011,08,20,07,57,18.20
2011,08,20,07,58,18.20
2011,08,20,07,59,18.30
2011,08,20,08,00,18.40
2011,08,20,08,01,18.60
2011,08,20,08,02,18.60
2011,08,20,08,03,18.60
2011,08,20,08,04,18.60
2011,08,20,08,05,18.70
2011,08,20,08,06,18.80
2011,08,20,08,07,18.80
2011,08,20,08,08,19.00
2011,08,20,08,09,19.10
2011,08,20,08,10,19.20
2011,08,20,08,11,19.30
2011,08,20,08,12,19.40
2011,08,20,08,13,19.50
2011,08,20,08,14,19.50
2011,08,20,08,15,19.60
2011,08,20,08,16,19.70
2011,08,20,08,17,19.90
2011,08,20,08,18,19.90
2011,08,20,08,19,20.00
2011,08,20,08,20,20.00
2011,08,20,08,21,20.00
2011,08,20,08,22,20.10
2011,08,20,08,23,20.10
2011,08,20,08,24,20.10
2011,08,20,08,25,20.20
2011,08,20,08,26,20.20
2011,08,20,08,27,20.20
2011,08,20,08,28,20.20
2011,08,20,08,29,20.30
2011,08,20,08,30,20.40
2011,08,20,08,31,20.40
2011,08,20,08,32,20.50
2011,08,20,08,33,20.50
2011,08,20,08,34,20.60
2011,08,20,08,35,20.60
2011,08,20,08,36,20.70
2011,08,20,08,37,20.70
2011,08,20,08,38,20.80
2011,08,20,08,39,20.80
2011,08,20,08,40,20.90
2011,08,20,08,41,21.00
2011,08,20,08,42,21.10
2011,08,20,08,43,21.20
2011,08,20,08,44,21.30
2011,08,20,08,45,21.30
2011,08,20,08,46,21.30
2011,08,20,08,47,21.30
2011,08,20,08,48,21.30
2011,08,20,08,49,21.20
2011,08,20,08,50,21.10
2011,08,20,08,51,20.90
2011,08,20,08,52,20.80
2011,08,20,08,53,20.80
2011,08,20,08,54,20.80
2011,08,20,08,55,20.70
2011,08,20,08,56,20.60
2011,08,20,08,57,20.50
2011,08,20,08,58,20.50
2011,08,20,08,59,20.50
2011,08,20,09,00,20.60
2011,08,20,09,01,20.60
2011,08,20,09,02,20.70
2011,08,20,09,03,20.80
2011,08,20,09,04,20.80
2011,08,20,09,05,20.80
2011,08,20,09,06,20.80
2011,08,20,09,07,20.80
2011,08,20,09,08,20.80
2011,08,20,09,09,20.80
2011,08,20,09,10,20.90
2011,08,20,09,11,21.00
2011,08,20,09,12,21.10
2011,08,20,09,13,21.10
2011,08,20,09,14,21.20
2011,08,20,09,15,21.20
2011,08,20,09,16,21.30
2011,08,20,09,17,21.50
2011,08,20,09,18,21.60
2011,08,20,09,19,21.70
2011,08,20,09,20,21.80
2011,08,20,09,21,21.80
2011,08,20,09,22,21.90
2011,08,20,09,23,21.80
2011,08,20,09,24,21.80
2011,08,20,09,25,21.80
2011,08,20,09,26,21.80
2011,08,20,09,27,21.80
2011,08,20,09,28,21.80
2011,08,20,09,29,21.80
2011,08,20,09,30,21.80
2011,08,20,09,31,21.70
2011,08,20,09,32,21.70
2011,08,20,09,33,21.70
2011,08,20,09,34,21.70
2011,08,20,09,35,21.70
2011,08,20,09,36,21.70
2011,08,20,09,37,21.80
2011,08,20,09,38,21.80
2011,08,20,09,39,21.80
2011,08,20,09,40,21.80
2011,08,20,09,41,21.80
2011,08,20,09,42,21.80
2011,08,20,09,43,21.80
2011,08,20,09,44,21.90
2011,08,20,09,45,21.90
2011,08,20,09,46,22.00
2011,08,20,09,47,22.00
2011,08,20,09,48,22.10
2011,08,20,09,49,22.10
2011,08,20,09,50,22.10
2011,08,20,09,51,22.10
2011,08,20,09,52,22.20
2011,08,20,09,53,22.20
2011,08,20,09,54,22.30
2011,08,20,09,55,22.30
2011,08,20,09,56,22.40
2011,08,20,09,57,22.40
2011,08,20,09,58,22.40
2011,08,20,09,59,22.40
2011,08,20,10,00,22.40
2011,08,20,10,01,22.50
2011,08,20,10,02,22.50
2011,08,20,10,03,22.60
2011,08,20,10,04,22.60
2011,08,20,10,05,22.60
2011,08,20,10,06,22.60
2011,08,20,10,07,22.70
2011,08,20,10,08,22.80
2011,08,20,10,09,22.80
2011,08,20,10,10,22.90
2011,08,20,10,11,22.90
2011,08,20,10,12,23.00
2011,08,20,10,13,23.00
2011,08,20,10,14,23.00
2011,08,20,10,15,22.90
2011,08,20,10,16,22.80
2011,08,20,10,17,22.80
2011,08,20,10,18,22.70
2011,08,20,10,19,22.60
2011,08,20,10,20,22.70
2011,08,20,10,21,22.80
2011,08,20,10,22,22.80
2011,08,20,10,23,22.90
2011,08,20,10,24,22.90
2011,08,20,10,25,22.80
2011,08,20,10,26,22.70
2011,08,20,10,27,22.60
2011,08,20,10,28,22.60
2011,08,20,10,29,22.60
2011,08,20,10,30,22.60
2011,08,20,10,31,22.60
2011,08,20,10,32,22.50
2011,08,20,10,33,22.50
2011,08,20,10,34,22.50
2011,08,20,10,35,22.60
2011,08,20,10,36,22.70
2011,08,20,10,37,22.60
2011,08,20,10,38,22.70
2011,08,20,10,39,22.70
2011,08,20,10,40,22.70
2011,08,20,10,41,22.80
2011,08,20,10,42,22.80
2011,08,20,10,43,22.80
2011,08,20,10,44,22.80
2011,08,20,10,45,22.90
2011,08,20,10,46,22.90
2011,08,20,10,47,22.80
2011,08,20,10,48,22.80
2011,08,20,10,49,22.80
2011,08,20,10,50,22.90
2011,08,20,10,51,22.90
2011,08,20,10,52,23.00
2011,08,20,10,53,23.00
2011,08,20,10,54,23.10
2011,08,20,10,55,23.10
2011,08,20,10,56,23.10
2011,08,20,10,57,23.20
2011,08,20,10,58,23.20
2011,08,20,10,59,23.30
2011,08,20,11,00,23.40
2011,08,20,11,01,23.40
2011,08,20,11,02,23.40
2011,08,20,11,03,23.40
2011,08,20,11,04,23.40
2011,08,20,11,05,23.40
2011,08,20,11,06,23.30
2011,08,20,11,07,23.30
2011,08,20,11,08,23.40
2011,08,20,11,09,23.40
2011,08,20,11,10,23.40
2011,08,20,11,11,23.40
2011,08,20,11,12,23.40
2011,08,20,11,13,23.40
2011,08,20,11,14,23.50
2011,08,20,11,15,23.60
2011,08,20,11,16,23.70
2011,08,20,11,17,23.80
2011,08,20,11,18,23.80
2011,08,20,11,19,23.80
2011,08,20,11,20,23.70
2011,08,20,11,21,23.70
2011,08,20,11,22,23.60
2011,08,20,11,23,23.60
2011,08,20,11,24,23.70
2011,08,20,11,25,23.80
2011,08,20,11,26,23.80
2011,08,20,11,27,23.90
2011,08,20,11,28,23.90
2011,08,20,11,29,24.00
2011,08,20,11,30,24.10
2011,08,20,11,31,24.10
2011,08,20,11,32,24.10
2011,08,20,11,33,24.20
2011,08,20,11,34,24.10
2011,08,20,11,35,24.10
2011,08,20,11,36,24.10
2011,08,20,11,37,24.10
2011,08,20,11,38,24.10
2011,08,20,11,39,24.20
2011,08,20,11,40,24.20
2011,08,20,11,41,24.30
2011,08,20,11,42,24.30
2011,08,20,11,43,24.30
2011,08,20,11,44,24.20
2011,08,20,11,45,24.10
2011,08,20,11,46,24.10
2011,08,20,11,47,24.20
2011,08,20,11,48,24.30
2011,08,20,11,49,24.30
2011,08,20,11,50,24.30
2011,08,20,11,51,24.30
2011,08,20,11,52,24.30
2011,08,20,11,53,24.30
2011,08,20,11,54,24.40
2011,08,20,11,55,24.40
2011,08,20,11,56,24.30
2011,08,20,11,57,24.30
2011,08,20,11,58,24.30
2011,08,20,11,59,24.30
2011,08,20,12,00,24.30
2011,08,20,12,01,24.30
2011,08,20,12,02,24.30
2011,08,20,12,03,24.30
2011,08,20,12,04,24.30
2011,08,20,12,05,24.30
2011,08,20,12,06,24.30
2011,08,20,12,07,24.30
2011,08,20,12,08,24.40
2011,08,20,12,09,24.40
2011,08,20,12,10,24.50
2011,08,20,12,11,24.50
2011,08,20,12,12,24.50
2011,08,20,12,13,24.50
2011,08,20,12,14,24.50
2011,08,20,12,15,24.60
2011,08,20,12,16,24.60
2011,08,20,12,17,24.60
2011,08,20,12,18,24.60
2011,08,20,12,19,24.70
2011,08,20,12,20,24.60
2011,08,20,12,21,24.60
2011,08,20,12,22,24.60
2011,08,20,12,23,24.60
2011,08,20,12,24,24.70
2011,08,20,12,25,24.80
2011,08,20,12,26,24.80
2011,08,20,12,27,24.80
2011,08,20,12,28,24.90
2011,08,20,12,29,24.90
2011,08,20,12,30,24.80
2011,08,20,12,31,24.70
2011,08,20,12,32,24.60
2011,08,20,12,33,24.60
2011,08,20,12,34,24.60
2011,08,20,12,35,24.60
2011,08,20,12,36,24.70
2011,08,20,12,37,24.80
2011,08,20,12,38,24.90
2011,08,20,12,39,24.90
2011,08,20,12,40,25.00
2011,08,20,12,41,25.10
2011,08,20,12,42,25.20
2011,08,20,12,43,25.40
2011,08,20,12,44,25.40
2011,08,20,12,45,25.50
2011,08,20,12,46,25.60
2011,08,20,12,47,25.70
2011,08,20,12,48,25.70
2011,08,20,12,49,25.80
2011,08,20,12,50,25.80
2011,08,20,12,51,25.70
2011,08,20,12,52,25.60
2011,08,20,12,53,25.40
2011,08,20,12,54,25.40
2011,08,20,12,55,25.50
2011,08,20,12,56,25.50
2011,08,20,12,57,25.50
2011,08,20,12,58,25.40
2011,08,20,12,59,25.40
2011,08,20,13,00,25.40
2011,08,20,13,01,25.50
2011,08,20,13,02,25.50
2011,08,20,13,03,25.50
2011,08,20,13,04,25.60
2011,08,20,13,05,25.60
2011,08,20,13,06,25.60
2011,08,20,13,07,25.70
2011,08,20,13,08,25.80
2011,08,20,13,09,25.80
2011,08,20,13,10,25.90
2011,08,20,13,11,25.90
2011,08,20,13,12,25.90
2011,08,20,13,13,25.90
2011,08,20,13,14,26.00
2011,08,20,13,15,26.00
2011,08,20,13,16,25.90
2011,08,20,13,17,25.80
2011,08,20,13,18,25.60
2011,08,20,13,19,25.60
2011,08,20,13,20,25.60
2011,08,20,13,21,25.70
2011,08,20,13,22,25.70
2011,08,20,13,23,25.80
2011,08,20,13,24,25.80
2011,08,20,13,25,25.80
2011,08,20,13,26,25.80
2011,08,20,13,27,25.70
2011,08,20,13,28,25.70
2011,08,20,13,29,25.70
2011,08,20,13,30,25.60
2011,08,20,13,31,25.60
2011,08,20,13,32,25.50
2011,08,20,13,33,25.40
2011,08,20,13,34,25.30
2011,08,20,13,35,25.30
2011,08,20,13,36,25.30
2011,08,20,13,37,25.30
2011,08,20,13,38,25.30
2011,08,20,13,39,25.20
2011,08,20,13,40,25.30
2011,08,20,13,41,25.20
2011,08,20,13,42,25.20
2011,08,20,13,43,25.20
2011,08,20,13,44,25.20
2011,08,20,13,45,25.20
2011,08,20,13,46,25.20
2011,08,20,13,47,25.10
2011,08,20,13,48,25.10
2011,08,20,13,49,25.10
2011,08,20,13,50,25.10
2011,08,20,13,51,25.10
2011,08,20,13,52,25.10
2011,08,20,13,53,25.10
2011,08,20,13,54,25.10
2011,08,20,13,55,25.10
2011,08,20,13,56,25.10
2011,08,20,13,57,25.20
2011,08,20,13,58,25.20
2011,08,20,13,59,25.20
2011,08,20,14,00,25.20
2011,08,20,14,01,25.20
2011,08,20,14,02,25.20
2011,08,20,14,03,25.40
2011,08,20,14,04,25.50
2011,08,20,14,05,25.50
2011,08,20,14,06,25.60
2011,08,20,14,07,25.60
2011,08,20,14,08,25.50
2011,08,20,14,09,25.30
2011,08,20,14,10,25.20
2011,08,20,14,11,25.20
2011,08,20,14,12,25.10
2011,08,20,14,13,25.00
2011,08,20,14,14,24.90
2011,08,20,14,15,24.80
2011,08,20,14,16,24.70
2011,08,20,14,17,24.70
2011,08,20,14,18,24.70
2011,08,20,14,19,24.80
2011,08,20,14,20,24.80
2011,08,20,14,21,24.90
2011,08,20,14,22,24.90
2011,08,20,14,23,24.90
2011,08,20,14,24,24.80
2011,08,20,14,25,24.70
2011,08,20,14,26,24.60
2011,08,20,14,27,24.60
2011,08,20,14,28,24.50
2011,08,20,14,29,24.40
2011,08,20,14,30,24.30
2011,08,20,14,31,24.30
2011,08,20,14,32,24.30
2011,08,20,14,33,24.40
2011,08,20,14,34,24.40
2011,08,20,14,35,24.40
2011,08,20,14,36,24.40
2011,08,20,14,37,24.40
2011,08,20,14,38,24.40
2011,08,20,14,39,24.50
2011,08,20,14,40,24.60
2011,08,20,14,41,24.70
2011,08,20,14,42,24.90
2011,08,20,14,43,25.00
2011,08,20,14,44,25.10
2011,08,20,14,45,25.20
2011,08,20,14,46,25.30
2011,08,20,14,47,25.40
2011,08,20,14,48,25.50
2011,08,20,14,49,25.60
2011,08,20,14,50,25.60
2011,08,20,14,51,25.70
2011,08,20,14,52,25.80
2011,08,20,14,53,25.80
2011,08,20,14,54,25.90
2011,08,20,14,55,25.90
2011,08,20,14,56,25.90
2011,08,20,14,57,25.90
2011,08,20,14,58,25.90
2011,08,20,14,59,25.90
2011,08,20,15,00,25.90
2011,08,20,15,01,26.00
2011,08,20,15,02,26.10
2011,08,20,15,03,26.20
2011,08,20,15,04,26.10
2011,08,20,15,05,26.10
2011,08,20,15,06,26.00
2011,08,20,15,07,25.90
2011,08,20,15,08,25.90
2011,08,20,15,09,25.70
2011,08,20,15,10,25.60
2011,08,20,15,11,25.50
2011,08,20,15,12,25.50
2011,08,20,15,13,25.30
2011,08,20,15,14,25.30
2011,08,20,15,15,25.30
2011,08,20,15,16,25.30
2011,08,20,15,17,25.40
2011,08,20,15,18,25.50
2011,08,20,15,19,25.50
2011,08,20,15,20,25.50
2011,08,20,15,21,25.60
2011,08,20,15,22,25.60
2011,08,20,15,23,25.40
2011,08,20,15,24,25.30
2011,08,20,15,25,25.30
2011,08,20,15,26,25.30
2011,08,20,15,27,25.30
2011,08,20,15,28,25.30
2011,08,20,15,29,25.30
2011,08,20,15,30,25.30
2011,08,20,15,31,25.30
2011,08,20,15,32,25.30
2011,08,20,15,33,25.40
2011,08,20,15,34,25.40
2011,08,20,15,35,25.40
2011,08,20,15,36,25.40
2011,08,20,15,37,25.30
2011,08,20,15,38,25.40
2011,08,20,15,39,25.40
2011,08,20,15,40,25.30
2011,08,20,15,41,25.30
2011,08,20,15,42,25.10
2011,08,20,15,43,25.10
2011,08,20,15,44,25.00
2011,08,20,15,45,25.10
2011,08,20,15,46,25.10
2011,08,20,15,47,25.10
2011,08,20,15,48,25.10
2011,08,20,15,49,25.10
2011,08,20,15,50,25.20
2011,08,20,15,51,25.20
2011,08,20,15,52,25.30
2011,08,20,15,53,25.40
2011,08,20,15,54,25.40
2011,08,20,15,55,25.40
2011,08,20,15,56,25.40
2011,08,20,15,57,25.30
2011,08,20,15,58,25.40
2011,08,20,15,59,25.40
2011,08,20,16,00,25.60
2011,08,20,16,01,25.60
2011,08,20,16,02,25.70
2011,08,20,16,03,25.70
2011,08,20,16,04,25.70
2011,08,20,16,05,25.80
2011,08,20,16,06,25.90
2011,08,20,16,07,26.00
2011,08,20,16,08,26.00
2011,08,20,16,09,26.10
2011,08,20,16,10,26.20
2011,08,20,16,11,26.30
2011,08,20,16,12,26.40
2011,08,20,16,13,26.50
2011,08,20,16,14,26.60
2011,08,20,16,15,26.70
2011,08,20,16,16,26.80
2011,08,20,16,17,26.90
2011,08,20,16,18,27.00
2011,08,20,16,19,27.00
2011,08,20,16,20,26.90
2011,08,20,16,21,26.90
2011,08,20,16,22,27.00
2011,08,20,16,23,27.00
2011,08,20,16,24,27.10
2011,08,20,16,25,27.00
2011,08,20,16,26,26.80
2011,08,20,16,27,26.80
2011,08,20,16,28,26.70
2011,08,20,16,29,26.60
2011,08,20,16,30,26.50
2011,08,20,16,31,26.40
2011,08,20,16,32,26.20
2011,08,20,16,33,26.00
2011,08,20,16,34,25.90
2011,08,20,16,35,25.80
2011,08,20,16,36,25.60
2011,08,20,16,37,25.50
2011,08,20,16,38,25.40
2011,08,20,16,39,25.30
2011,08,20,16,40,25.30
2011,08,20,16,41,25.20
2011,08,20,16,42,25.20
2011,08,20,16,43,25.30
2011,08,20,16,44,25.30
2011,08,20,16,45,25.40
2011,08,20,16,46,25.60
2011,08,20,16,47,25.80
2011,08,20,16,48,25.90
2011,08,20,16,49,25.90
2011,08,20,16,50,26.00
2011,08,20,16,51,26.10
2011,08,20,16,52,26.20
2011,08,20,16,53,26.30
2011,08,20,16,54,26.40
2011,08,20,16,55,26.40
2011,08,20,16,56,26.40
2011,08,20,16,57,26.40
2011,08,20,16,58,26.50
2011,08,20,16,59,26.50
2011,08,20,17,00,26.60
2011,08,20,17,01,26.60
2011,08,20,17,02,26.60
2011,08,20,17,03,26.60
2011,08,20,17,04,26.50
2011,08,20,17,05,26.50
2011,08,20,17,06,26.50
2011,08,20,17,07,26.40
2011,08,20,17,08,26.40
2011,08,20,17,09,26.50
2011,08,20,17,10,26.50
2011,08,20,17,11,26.60
2011,08,20,17,12,26.60
2011,08,20,17,13,26.60
2011,08,20,17,14,26.60
2011,08,20,17,15,26.60
2011,08,20,17,16,26.60
2011,08,20,17,17,26.60
2011,08,20,17,18,26.60
2011,08,20,17,19,26.50